Location: Milton Keynes
(52.0316°N, 0.7531°W)
Time: 13:05:29
(UTC+00:00)

Envisat - Pass Details

Date: 30 January 2019
Orbit: 764 x 766 km, 98.2° (Epoch: 23 February)

Event Time Altitude Azimuth Distance (km) Brightness Sun altitude
Rises 18:31:38 0° 164° (SSE) 3,223 6.2 -16.1°
Reaches altitude 10° 18:33:55 10° 165° (SSE) 2,301 5.4 -16.4°
Maximum altitude 18:39:01 88° 256° (WSW) 775 3.0 -17.2°
Drops below altitude 10° 18:44:08 10° 345° (NNW) 2,317 5.6 -18.0°
Sets 18:46:27 0° 346° (NNW) 3,247 6.4 -18.4°
